Location: Meriden
(44.0740°N, 93.3870°W)
Time: 15:35:21
(UTC-05:00)

Amateur Radio Satellites - All Passes

Search period start: 25 July 2014 15:05
Search period end: 26 July 2014 15:05
Location: Meriden, 44.0740°N, 93.3870°W

Satellite Date Start Highest point End Downlink Frequencies (MHz)
Time Altitude Azimuth
SO-50 25 Jul 15:05:51 15:10:05 40° 313° (NW) 15:14:24 436.795 FM
Oscar 19 25 Jul 15:16:47 15:20:16 18° 269° (W) 15:23:47 437.125 CW, 437.150 USB
JAS-1B 25 Jul 15:34:33 15:43:08 67° 260° (W) 15:52:55 435.800 - 435.900 CW/SSB
UOSAT-12 25 Jul 15:47:46 15:52:12 50° 119° (ESE) 15:56:44 437.025 FM, 437.400 FM
TMSAT-1 25 Jul 15:52:01 15:57:14 59° 259° (W) 16:02:29 436.925 FM
ITAMSAT 1 25 Jul 15:57:27 16:00:46 17° 269° (W) 16:04:06 435.822 SSB
AO-Echo 25 Jul 16:04:15 16:07:12 15° 271° (W) 16:10:12 ?
Gurwin Techsat 1B 25 Jul 16:14:51 16:19:22 28° 266° (W) 16:23:54 435.225 FM
Uosat F 25 Jul 16:16:34 16:21:31 61° 72° (ENE) 16:26:31 435.120 FM
AO-27 25 Jul 16:17:51 16:19:14 11° 273° (W) 16:20:38 436.795 MHz FM
Saudisat 1A 25 Jul 16:21:01 16:24:15 19° 38° (NE) 16:27:27 436.775 MHz
JAS-2 25 Jul 16:27:43 16:31:06 14° 51° (NE) 16:34:24 435.800 - 435.900 CW/SSB, 435.910 FM
RS-15 25 Jul 16:34:37 16:45:14 49° 319° (NW) 16:55:47 29.354 - 29.394 USB, Beacon 29.352 USB
AO-7 25 Jul 16:51:33 16:59:54 76° 254° (WSW) 17:08:19 29.400 - 29.500 MHz
OPAL 25 Jul 16:53:11 16:57:53 38° 100° (E) 17:02:37 ?
KITSAT 1 25 Jul 16:57:54 17:05:56 70° 243° (WSW) 17:13:54 435.175 FM
UOSAT-12 25 Jul 17:28:42 17:32:36 26° 318° (NW) 17:36:35 437.025 FM, 437.400 FM
JAS-1B 25 Jul 17:31:09 17:35:38 15° 281° (WNW) 17:40:21 435.800 - 435.900 CW/SSB
Uosat F 25 Jul 17:57:28 18:00:43 17° 269° (W) 18:04:00 435.120 FM
Hamsat 25 Jul 17:57:58 18:01:56 44° 72° (ENE) 18:05:56 145.90 MHz
Saudisat 1A 25 Jul 17:59:53 18:04:17 69° 238° (WSW) 18:08:39 436.775 MHz
JAS-2 25 Jul 18:07:08 18:14:46 58° 70° (ENE) 18:22:00 435.800 - 435.900 CW/SSB, 435.910 FM
OPAL 25 Jul 18:32:19 18:36:38 29° 297° (WNW) 18:40:59 ?
AO-7 25 Jul 18:49:38 18:54:02 15° 273° (W) 18:58:29 29.400 - 29.500 MHz
RS-15 25 Jul 18:52:23 19:01:03 26° 351° (N) 19:09:48 29.354 - 29.394 USB, Beacon 29.352 USB
KITSAT 1 25 Jul 18:56:19 18:59:50 14° 262° (W) 19:03:22 435.175 FM
STRAND 1 25 Jul 19:10:33 19:14:38 24° 94° (E) 19:18:41 ?
SO-67 25 Jul 19:23:28 19:26:52 60° 75° (ENE) 19:30:19 435.3500 MHz FM
Hamsat 25 Jul 19:35:27 19:38:09 17° 269° (W) 19:40:51 145.90 MHz
HO-68 25 Jul 19:47:06 19:52:28 24° 55° (NE) 19:57:49 435.675 MHz FM
JAS-2 25 Jul 19:53:09 20:00:00 33° 266° (W) 20:06:38 435.800 - 435.900 CW/SSB, 435.910 FM
SO-50 25 Jul 20:17:06 20:18:00 10° 26° (NNE) 20:18:53 436.795 FM
Oscar 11 25 Jul 20:47:34 20:49:34 13° 61° (ENE) 20:51:34 145.825 FM, Beacon 2401.500 USB
STRAND 1 25 Jul 20:49:10 20:54:01 45° 291° (WNW) 20:58:50 ?
RS-15 25 Jul 21:08:17 21:17:55 33° 27° (NNE) 21:27:42 29.354 - 29.394 USB, Beacon 29.352 USB
UKube-1 25 Jul 21:31:39 21:36:00 75° 74° (ENE) 21:40:24 145.840 MHz, 145.915 MHz
HO-68 25 Jul 21:32:14 21:39:25 79° 254° (WSW) 21:46:38 435.675 MHz FM
SO-50 25 Jul 21:55:21 21:59:50 41° 48° (NE) 22:04:22 436.795 FM
Oscar 11 25 Jul 22:20:55 22:25:12 69° 258° (WSW) 22:29:31 145.825 FM, Beacon 2401.500 USB
MaSat-1 25 Jul 22:21:53 22:25:41 46° 110° (ESE) 22:30:08 437.345 MHz
FUNcube-1 25 Jul 22:32:23 22:36:40 59° 74° (ENE) 22:40:52 145.950 - 145.970 MHz USB
UOSAT-12 25 Jul 22:36:58 22:39:35 15° 32° (NNE) 22:42:12 437.025 FM, 437.400 FM
UKube-1 25 Jul 23:11:35 23:12:44 11° 271° (W) 23:13:53 145.840 MHz, 145.915 MHz
RS-15 25 Jul 23:21:03 23:32:08 82° 54° (NE) 23:43:36 29.354 - 29.394 USB, Beacon 29.352 USB
HO-68 25 Jul 23:24:38 23:28:12 14° 273° (W) 23:31:47 435.675 MHz FM
SO-50 25 Jul 23:36:11 23:40:17 29° 245° (WSW) 23:44:25 436.795 FM
Lituanica SAT-1 25 Jul 23:46:29 23:48:18 28° 142° (SE) 23:50:07 437.275 MHz beacon
MaSat-1 25 Jul 23:59:58 00:03:22 23° 313° (NW) 00:07:09 437.345 MHz
FUNcube-1 26 Jul 00:11:15 00:13:25 14° 270° (W) 00:15:34 145.950 - 145.970 MHz USB
UOSAT-12 26 Jul 00:15:55 00:20:39 66° 53° (NE) 00:25:19 437.025 FM, 437.400 FM
ISS 26 Jul 00:20:01 00:21:29 12° 131° (SE) 00:22:58 145.800 FM
Sapphire 26 Jul 01:15:52 01:20:15 26° 108° (ESE) 01:24:40 437.095 MHz 1200 baud AX-25 AFSK
Lituanica SAT-1 26 Jul 01:19:04 01:20:45 22° 339° (NNW) 01:22:27 437.275 MHz beacon
RS-15 26 Jul 01:34:30 01:43:19 29° 256° (WSW) 01:52:25 29.354 - 29.394 USB, Beacon 29.352 USB
AO-40 26 Jul 01:36:16 03:49:06 27° 204° (SSW) 08:03:03 Beacon 2401.320
Oscar 19 26 Jul 01:46:37 01:50:08 18° 91° (E) 01:53:39 437.125 CW, 437.150 USB
PCSat 26 Jul 01:48:35 01:53:48 52° 115° (ESE) 01:59:04 145.825 MHz
ISS 26 Jul 01:54:23 01:57:44 87° 148° (SSE) 02:01:07 145.800 FM
UOSAT-12 26 Jul 01:57:20 02:00:17 17° 250° (WSW) 02:03:13 437.025 FM, 437.400 FM
Oscar 16 26 Jul 02:13:34 02:18:14 33° 96° (E) 02:22:52 437.025 USB, Beacon 2401.1428
ITAMSAT 1 26 Jul 02:27:59 02:31:48 20° 92° (E) 02:35:35 435.822 SSB
AO-Echo 26 Jul 02:29:33 02:33:28 22° 92° (E) 02:37:17 ?
OPAL 26 Jul 02:34:44 02:36:31 12° 54° (NE) 02:38:18 ?
AO-27 26 Jul 02:45:46 02:50:19 30° 96° (E) 02:54:49 436.795 MHz FM
Uribyol 2 26 Jul 02:47:44 02:52:22 32° 96° (E) 02:56:57 436.500 FM
Gurwin Techsat 1B 26 Jul 02:50:31 02:53:15 14° 89° (E) 02:55:58 435.225 FM
Lituanica SAT-1 26 Jul 02:53:12 02:53:44 11° 358° (N) 02:54:15 437.275 MHz beacon
Sapphire 26 Jul 02:58:08 03:03:22 50° 307° (NW) 03:08:40 437.095 MHz 1200 baud AX-25 AFSK
JAS-1B 26 Jul 03:19:34 03:28:42 46° 95° (E) 03:36:38 435.800 - 435.900 CW/SSB
Oscar 19 26 Jul 03:24:47 03:29:52 59° 288° (WNW) 03:34:56 437.125 CW, 437.150 USB
ISS 26 Jul 03:31:51 03:34:46 27° 347° (NNW) 03:37:42 145.800 FM
PCSat 26 Jul 03:32:52 03:37:30 28° 314° (NW) 03:42:11 145.825 MHz
Oscar 16 26 Jul 03:52:58 03:57:32 33° 294° (WNW) 04:02:06 437.025 USB, Beacon 2401.1428
TMSAT-1 26 Jul 04:06:19 04:11:29 50° 99° (E) 04:16:36 436.925 FM
ITAMSAT 1 26 Jul 04:06:34 04:11:37 53° 290° (WNW) 04:16:37 435.822 SSB
AO-Echo 26 Jul 04:07:34 04:12:31 48° 290° (WNW) 04:17:16 ?
OPAL 26 Jul 04:09:39 04:14:36 81° 72° (ENE) 04:19:34 ?
Uosat F 26 Jul 04:24:05 04:27:14 17° 91° (E) 04:30:22 435.120 FM
AO-27 26 Jul 04:25:08 04:29:52 37° 293° (WNW) 04:34:34 436.795 MHz FM
Lituanica SAT-1 26 Jul 04:25:15 04:26:45 17° 18° (NNE) 04:28:14 437.275 MHz beacon
Uribyol 2 26 Jul 04:27:13 04:31:49 34° 294° (WNW) 04:36:25 436.500 FM
Gurwin Techsat 1B 26 Jul 04:28:29 04:33:49 78° 286° (WNW) 04:39:07 435.225 FM
Sapphire 26 Jul 04:45:56 04:48:09 12° 329° (NNW) 04:50:22 437.095 MHz 1200 baud AX-25 AFSK
AO-7 26 Jul 04:51:54 04:59:20 35° 96° (E) 05:06:41 29.400 - 29.500 MHz
Oscar 10/S400 26 Jul 04:57:17 06:09:10 45° 223° (SW) 11:49:20 145.825 - 145.975 CW/USB, Beacon 145.810 USB
ISS 26 Jul 05:09:27 05:12:14 23° 7° (N) 05:15:00 145.800 FM
JAS-1B 26 Jul 05:10:03 05:19:12 50° 297° (WNW) 05:27:17 435.800 - 435.900 CW/SSB
KITSAT 1 26 Jul 05:37:23 05:41:02 14° 98° (E) 05:44:41 435.175 FM
TMSAT-1 26 Jul 05:46:56 05:51:05 24° 297° (WNW) 05:55:12 436.925 FM
OPAL 26 Jul 05:52:06 05:54:05 12° 269° (W) 05:56:06 ?
Lituanica SAT-1 26 Jul 05:57:19 05:59:17 45° 215° (SW) 06:01:13 437.275 MHz beacon
Uosat F 26 Jul 06:01:29 06:06:27 62° 288° (WNW) 06:11:23 435.120 FM
Gurwin Techsat 1B 26 Jul 06:10:54 06:12:55 12° 304° (NW) 06:14:56 435.225 FM
STRAND 1 26 Jul 06:27:41 06:32:28 40° 68° (ENE) 06:37:16 ?
MaSat-1 26 Jul 06:38:45 06:43:05 25° 48° (NE) 06:47:21 437.345 MHz
AO-7 26 Jul 06:44:21 06:52:28 58° 296° (WNW) 07:00:30 29.400 - 29.500 MHz
ISS 26 Jul 06:46:07 06:49:27 56° 27° (NNE) 06:52:46 145.800 FM
JAS-2 26 Jul 07:01:34 07:07:17 39° 95° (E) 07:12:25 435.800 - 435.900 CW/SSB, 435.910 FM
JAS-1B 26 Jul 07:02:48 07:07:13 14° 320° (NW) 07:11:30 435.800 - 435.900 CW/SSB
Hamsat 26 Jul 07:17:44 07:22:02 77° 102° (ESE) 07:26:21 145.90 MHz
KITSAT 1 26 Jul 07:26:56 07:34:58 71° 117° (ESE) 07:43:01 435.175 FM
STRAND 1 26 Jul 08:07:28 08:11:46 27° 265° (W) 08:16:07 ?
Saudisat 1A 26 Jul 08:08:37 08:11:58 21° 113° (ESE) 08:15:20 436.775 MHz
MaSat-1 26 Jul 08:15:37 08:20:52 59° 248° (WSW) 08:25:53 437.345 MHz
SO-67 26 Jul 08:18:54 08:22:21 60° 100° (E) 08:25:47 435.3500 MHz FM
ISS 26 Jul 08:23:15 08:25:58 23° 224° (SW) 08:28:39 145.800 FM
AO-7 26 Jul 08:39:15 08:43:31 15° 318° (NW) 08:47:46 29.400 - 29.500 MHz
JAS-2 26 Jul 08:46:48 08:52:17 33° 297° (WNW) 08:57:13 435.800 - 435.900 CW/SSB, 435.910 FM
PCSat 26 Jul 08:52:59 08:55:42 14° 33° (NNE) 08:58:25 145.825 MHz
Hamsat 26 Jul 08:55:53 08:57:24 12° 299° (WNW) 08:58:55 145.90 MHz
HO-68 26 Jul 08:59:53 09:04:30 18° 89° (E) 09:09:05 435.675 MHz FM
UKube-1 26 Jul 09:20:59 09:22:17 11° 89° (E) 09:23:36 145.840 MHz, 145.915 MHz
KITSAT 1 26 Jul 09:23:45 09:31:01 35° 320° (NW) 09:38:18 435.175 FM
Saudisat 1A 26 Jul 09:46:59 09:51:16 47° 310° (NW) 09:55:34 436.775 MHz
Sapphire 26 Jul 10:01:26 10:06:17 32° 47° (NE) 10:11:07 437.095 MHz 1200 baud AX-25 AFSK
Oscar 11 26 Jul 10:07:54 10:11:03 19° 93° (E) 10:14:11 145.825 FM, Beacon 2401.500 USB
PCSat 26 Jul 10:34:57 10:40:20 58° 55° (NE) 10:45:40 145.825 MHz
HO-68 26 Jul 10:45:53 10:53:04 87° 288° (WNW) 11:00:13 435.675 MHz FM
UKube-1 26 Jul 10:54:38 10:59:00 72° 286° (WNW) 11:03:19 145.840 MHz, 145.915 MHz
KITSAT 1 26 Jul 11:24:40 11:29:19 16° 348° (NNW) 11:33:59 435.175 FM
Saudisat 1A 26 Jul 11:30:54 11:31:57 11° 332° (NNW) 11:33:00 436.775 MHz
Oscar 11 26 Jul 11:43:20 11:47:24 41° 289° (WNW) 11:51:28 145.825 FM, Beacon 2401.500 USB
Sapphire 26 Jul 11:44:43 11:49:51 44° 247° (WSW) 11:54:58 437.095 MHz 1200 baud AX-25 AFSK
FUNcube-1 26 Jul 11:56:16 12:00:27 78° 284° (WNW) 12:04:38 145.950 - 145.970 MHz USB
PCSat 26 Jul 12:19:13 12:23:19 22° 253° (WSW) 12:27:23 145.825 MHz
JAS-1B 26 Jul 12:20:19 12:24:14 13° 39° (NE) 12:28:14 435.800 - 435.900 CW/SSB
HO-68 26 Jul 12:35:03 12:39:49 20° 308° (NW) 12:44:34 435.675 MHz FM
Oscar 19 26 Jul 13:04:44 13:09:11 31° 66° (ENE) 13:13:39 437.125 CW, 437.150 USB
KITSAT 1 26 Jul 13:23:20 13:28:36 18° 19° (NNE) 13:33:51 435.175 FM
Oscar 16 26 Jul 13:31:56 13:36:55 56° 71° (ENE) 13:41:57 437.025 USB, Beacon 2401.1428
AO-Echo 26 Jul 13:43:16 13:48:01 35° 67° (ENE) 13:52:48 ?
RS-15 26 Jul 13:46:36 13:56:51 45° 110° (ESE) 14:06:54 29.354 - 29.394 USB, Beacon 29.352 USB
ITAMSAT 1 26 Jul 13:47:09 13:51:53 37° 67° (ENE) 13:56:39 435.822 SSB
SO-50 26 Jul 13:51:53 13:56:18 66° 121° (ESE) 14:00:50 436.795 FM
TMSAT-1 26 Jul 13:52:10 13:54:43 14° 57° (ENE) 13:57:16 436.925 FM
JAS-1B 26 Jul 14:03:49 14:12:08 46° 62° (ENE) 14:21:15 435.800 - 435.900 CW/SSB
AO-27 26 Jul 14:05:12 14:10:16 53° 70° (ENE) 14:15:21 436.795 MHz FM
AO-7 26 Jul 14:05:20 14:09:15 14° 41° (NE) 14:13:09 29.400 - 29.500 MHz
Uribyol 2 26 Jul 14:06:56 14:12:01 57° 71° (ENE) 14:17:07 436.500 FM
Gurwin Techsat 1B 26 Jul 14:12:27 14:16:50 27° 64° (ENE) 14:21:14 435.225 FM
UOSAT-12 26 Jul 14:31:00 14:33:13 13° 108° (ESE) 14:35:27 437.025 FM, 437.400 FM
Oscar 19 26 Jul 14:43:48 14:48:27 35° 263° (W) 14:53:08 437.125 CW, 437.150 USB
